Wind_Speed
30 27 32 28 28 29 31 33 29 27 25 22 23 23 21 24 28 29 27 25 25 24 22 21 20 19 17 17 17 16 15 14 14 13 13 13 14 14 14 14 15 16 17
29 30 29 30 25 26 29 32 35 32 27 24 23 21 20 25 28 32 30 29 29 30 29 25 23 21 21 20 19 18 17 16 16 15 16 16 17 16 16 17 18 19 20
30 30 31 29 26 24 25 28 30 30 28 29 27 25 27 27 29 32 35 34 34 36 36 34 30 26 23 21 20 19 19 19 19 19 18 17 18 18 19 20 21 23 24
23 30 28 30 26 21 21 23 27 25 28 31 30 35 31 29 32 35 39 39 43 42 42 41 41 32 30 29 25 22 21 21 21 21 19 19 20 19 24 23 25 26 30
19 28 27 24 22 26 19 17 25 39 31 34 31 35 30 35 38 43 46 39 38 44 40 40 49 47 45 43 32 21 24 23 21 22 21 22 22 23 25 27 33 31 34
15 22 26 19 16 18 24 17 18 22 21 23 25 22 27 25 26 35 36 42 43 46 42 44 41 31 34 24 21 25 24 25 25 26 25 26 26 27 29 32 34 36 41
9 18 22 17 13 13 16 19 20 17 18 21 23 24 28 32 33 34 40 33 41 43 36 40 24 24 26 28 25 25 26 27 28 27 29 30 31 32 32 34 34 39 41
13 18 20 18 16 14 15 20 19 16 13 14 15 25 25 14 18 6 15 26 20 13 12 18 20 29 30 28 28 27 28 29 30 30 31 33 34 35 36 37 40 42 42
15 15 15 15 13 12 13 16 17 16 13 15 8 10 15 3 5 14 12 11 15 11 11 14 23 29 29 29 30 34 31 30 31 32 33 34 38 43 43 44 41 42 43
13 13 11 11 12 11 12 14 14 12 9 6 2 9 16 16 9 7 5 8 15 14 15 19 24 29 29 35 35 35 39 33 32 35 36 41 39 42 45 43 44 44 45
14 15 13 11 9 10 10 10 8 6 7 6 5 10 11 7 8 9 7 10 15 15 19 24 28 30 31 27 25 27 29 30 33 36 39 41 43 45 45 47 46 46 47
11 15 14 10 9 7 7 8 8 11 9 8 7 11 9 7 7 10 9 7 10 10 11 19 22 20 21 24 28 28 31 34 38 41 42 45 45 47 49 48 47 49 49
15 15 15 15 15 12 13 8 4 10 10 10 9 8 9 8 9 9 8 7 9 13 14 17 19 22 25 28 32 34 36 39 42 45 45 47 49 48 49 50 51 49 49
15 15 12 14 10 11 10 11 13 13 10 9 11 9 8 8 8 9 10 11 14 16 18 21 25 29 32 35 37 39 41 43 46 48 50 50 51 51 50 51 50 45 44
13 13 12 14 14 14 13 12 10 9 8 7 6 5 6 8 9 11 14 16 18 21 24 28 31 34 37 40 43 45 48 50 52 54 56 56 54 51 48 44 42 41 41
11 11 11 10 10 9 8 7 5 4 3 4 5 6 8 9 11 14 16 18 21 23 26 30 32 35 38 41 43 46 48 49 49 48 46 44 44 42 41 39 38 38 39
8 7 6 5 5 4 3 3 2 2 3 4 5 6 8 11 14 16 18 20 21 23 24 25 27 30 32 34 36 37 38 39 39 39 38 37 37 37 37 36 36 36 35
5 4 4 3 2 1 0 1 2 3 3 4 6 8 11 13 15 16 17 16 17 19 20 22 24 26 28 29 31 32 33 33 33 34 35 35 34 35 36 36 36 36 36
6 5 4 2 0 2 4 4 4 4 5 7 9 12 14 15 14 12 13 14 15 16 18 19 20 21 24 24 26 27 28 29 29 30 31 33 32 33 35 37 37 36 34
7 6 4 3 2 3 4 5 6 7 8 11 13 16 17 14 13 14 15 15 16 17 18 19 20 20 20 20 20 22 23 23 24 25 27 28 28 27 30 32 33 31 28
8 7 5 4 3 4 6 7 7 9 11 13 15 17 14 13 14 14 14 14 15 16 18 18 18 17 17 19 20 22 24 24 23 24 24 25 25 25 27 30 30 29 26
10 9 8 7 6 6 8 9 9 11 13 16 17 15 13 14 13 13 14 15 16 18 19 19 20 21 21 21 22 22 23 24 24 23 24 25 25 24 24 25 26 27 28
13 13 11 10 8 8 9 10 11 13 14 17 17 14 15 14 14 15 16 16 17 18 19 20 20 22 24 25 24 23 23 22 24 23 24 23 23 23 22 22 22 23 24
14 15 14 13 11 10 10 12 13 14 16 18 17 16 14 15 15 16 16 17 18 19 19 20 21 24 24 23 22 21 20 19 19 18 17 18 19 19 20 21 22 22 23
17 17 16 16 14 12 11 13 14 15 16 17 16 15 14 14 16 16 17 18 19 19 19 20 22 23 21 18 17 17 16 17 16 16 17 19 20 21 22 22 23 23 24
17 17 17 17 15 14 13 13 14 16 16 17 15 14 14 15 17 18 18 18 20 20 18 20 22 18 16 14 14 15 16 16 17 17 18 18 19 21 23 23 24 24 24
Wind_Direction
234 234 226 222 214 214 218 211 215 216 221 208 209 212 225 239 237 235 224 224 223 226 228 215 215 215 211 214 218 219 222 225 230 237 242 248 252 253 257 261 266 276 283
231 236 232 228 225 220 215 214 215 219 226 217 217 217 231 235 236 238 232 231 228 231 232 217 208 206 212 214 218 222 225 228 233 238 243 250 257 261 265 270 275 280 287
221 231 233 234 230 226 223 216 215 221 227 219 216 219 227 230 235 237 236 236 237 237 234 220 202 198 207 212 218 224 228 233 237 239 245 252 258 266 268 273 277 283 290
228 220 228 235 239 233 234 219 223 228 223 223 230 231 239 242 238 242 242 247 239 235 234 226 210 200 201 206 215 222 230 235 240 244 250 256 261 267 277 278 282 287 290
218 216 217 226 237 235 230 219 225 214 221 226 223 230 232 244 242 240 246 251 259 260 262 244 236 225 206 198 199 210 233 240 245 252 255 260 266 271 274 281 285 286 288
211 201 204 213 223 229 237 231 231 238 250 251 254 245 271 255 250 242 255 250 259 266 247 249 239 248 223 203 216 216 232 242 246 251 257 262 265 268 271 274 279 284 290
192 185 182 197 209 214 227 227 231 241 251 247 252 256 257 257 247 257 262 259 249 245 256 243 243 222 211 222 218 224 234 242 248 253 258 262 265 266 268 274 277 284 288
138 160 173 185 202 211 216 212 218 230 237 237 257 247 244 255 308 307 246 244 238 167 162 183 207 205 215 224 228 230 239 246 250 253 258 262 266 268 271 274 279 285 282
123 141 150 169 181 196 200 198 210 224 222 231 210 267 290 282 79 104 108 119 133 164 251 226 221 213 220 229 237 239 235 249 254 260 262 264 267 273 275 281 282 282 283
118 133 151 159 172 181 183 197 200 196 208 231 199 82 111 101 133 153 170 195 190 202 217 230 238 236 230 252 249 254 259 248 255 261 264 271 270 273 279 281 283 282 284
98 118 122 143 148 158 169 167 143 114 133 161 88 135 140 167 196 243 243 221 244 233 223 236 248 253 245 245 254 260 263 258 259 262 266 270 275 279 280 281 283 284 286
84 96 101 112 130 137 155 129 155 151 132 146 169 176 198 205 221 222 226 232 249 233 247 244 251 257 265 268 270 273 271 266 264 267 270 274 278 279 280 282 283 286 289
84 101 107 101 103 115 144 198 142 136 176 182 188 187 199 217 190 219 219 230 241 245 246 251 261 267 268 269 271 271 270 268 269 272 275 278 280 283 283 285 288 289 290
92 99 99 104 92 109 121 130 148 155 177 163 169 187 188 204 220 240 249 254 257 258 261 264 266 269 271 273 274 274 274 275 276 278 280 281 283 284 287 287 286 285 282
100 96 96 101 115 110 113 121 133 144 155 164 185 213 238 244 253 261 267 269 272 271 269 270 271 272 273 275 276 277 278 279 279 280 281 281 282 281 279 279 280 280 281
114 118 122 120 118 122 126 129 138 145 178 209 235 252 262 268 273 274 275 275 274 275 274 272 272 273 274 275 275 276 278 278 279 280 281 282 284 281 280 280 280 280 282
136 136 133 128 127 123 121 120 155 204 239 258 269 277 283 288 290 289 287 285 281 279 279 280 280 279 280 280 281 283 283 285 285 284 283 282 282 281 280 280 278 276 277
165 165 159 153 143 108 60 344 314 304 298 299 301 302 301 298 295 293 290 287 286 287 286 286 285 286 285 284 282 281 282 284 284 285 285 284 284 283 283 281 279 278 277
186 186 186 188 189 349 339 329 319 311 312 313 313 314 312 310 305 299 296 298 298 299 297 297 297 297 292 289 290 290 288 287 287 285 284 284 284 283 283 281 279 278 279
199 202 204 221 281 316 327 324 316 317 320 322 324 323 323 322 320 318 318 322 321 316 313 315 312 306 301 298 299 300 299 300 300 297 296 294 292 288 283 282 282 282 284
224 225 230 246 276 309 325 325 320 319 321 325 328 327 326 323 321 323 324 321 319 322 328 321 319 317 318 315 308 306 308 309 307 302 299 297 294 288 282 281 282 283 283
239 238 244 259 282 304 319 323 321 321 325 327 329 327 324 320 319 321 325 330 333 335 330 331 333 332 326 321 317 315 313 312 312 310 310 308 304 298 291 286 285 282 279
248 247 247 253 268 289 305 312 314 318 325 327 326 325 324 324 326 329 330 333 335 335 333 335 331 330 328 322 319 315 313 313 313 312 313 311 308 305 302 299 295 292 288
255 249 249 253 261 276 293 304 310 318 323 327 325 323 325 325 326 326 328 332 335 334 332 329 330 332 330 327 326 325 322 319 319 318 317 316 315 314 310 307 303 299 295
256 251 249 251 258 268 284 298 306 314 320 324 321 319 320 321 321 324 328 333 334 333 333 331 334 334 337 339 343 346 347 349 344 338 333 327 324 321 316 312 308 304 300
255 252 250 251 257 265 277 292 301 309 317 318 315 315 318 321 322 326 328 330 334 336 335 335 336 339 344 350 352 351 347 344 338 337 337 335 334 333 329 324 319 312 303
Height
3090 3092 3096 3100 3102 3106 3109 3115 3119 3123 3126 3129 3131 3134 3137 3141 3144 3145 3145 3147 3148 3149 3150 3150 3152 3155 3156 3158 3159 3160 3160 3161 3162 3162 3163 3164 3165 3164 3164 3164 3163 3163 3163
3085 3088 3092 3095 3099 3102 3106 3110 3115 3119 3123 3127 3130 3130 3134 3137 3137 3140 3142 3143 3143 3144 3145 3146 3148 3150 3152 3155 3157 3158 3158 3158 3159 3160 3159 3160 3162 3161 3161 3161 3160 3159 3158
3078 3082 3087 3092 3096 3100 3103 3107 3112 3116 3120 3123 3124 3126 3128 3131 3132 3134 3136 3137 3138 3138 3139 3140 3142 3143 3147 3150 3153 3155 3155 3155 3156 3157 3158 3158 3159 3158 3157 3156 3155 3154 3153
3073 3077 3082 3088 3093 3098 3100 3106 3110 3113 3117 3118 3120 3121 3124 3124 3128 3130 3131 3131 3128 3129 3130 3131 3134 3136 3138 3141 3146 3150 3151 3151 3151 3153 3153 3153 3155 3154 3153 3151 3150 3148 3146
3067 3072 3077 3084 3089 3094 3097 3099 3103 3102 3107 3105 3106 3114 3119 3120 3119 3122 3123 3123 3123 3123 3126 3125 3126 3127 3125 3128 3135 3141 3146 3148 3148 3149 3149 3149 3148 3149 3150 3146 3141 3143 3140
3062 3067 3074 3081 3086 3090 3094 3099 3100 3098 3095 3106 3110 3112 3113 3113 3111 3114 3113 3115 3116 3116 3115 3117 3122 3126 3128 3133 3133 3135 3140 3143 3143 3144 3144 3144 3143 3142 3143 3141 3137 3134 3129
3061 3065 3072 3079 3084 3088 3092 3097 3099 3101 3102 3105 3106 3107 3106 3105 3104 3106 3106 3106 3107 3108 3111 3112 3115 3120 3126 3128 3130 3133 3135 3137 3138 3138 3138 3137 3136 3136 3136 3133 3132 3127 3123
3063 3067 3072 3078 3083 3086 3090 3093 3097 3100 3101 3102 3104 3103 3102 3102 3104 3098 3098 3099 3101 3106 3108 3109 3113 3118 3122 3124 3126 3128 3130 3131 3131 3130 3130 3130 3128 3128 3127 3125 3123 3119 3117
3068 3072 3075 3078 3082 3086 3090 3093 3096 3097 3099 3101 3102 3102 3101 3101 3104 3102 3102 3104 3104 3107 3108 3109 3114 3117 3119 3120 3121 3122 3122 3123 3124 3124 3123 3122 3121 3119 3117 3116 3114 3111 3108
3072 3075 3077 3080 3084 3086 3090 3091 3094 3096 3098 3099 3100 3101 3101 3101 3104 3103 3105 3104 3105 3107 3108 3110 3113 3114 3115 3115 3115 3116 3116 3116 3117 3117 3115 3114 3113 3110 3107 3105 3103 3101 3098
3077 3078 3079 3082 3085 3089 3090 3092 3093 3095 3097 3099 3100 3101 3101 3102 3102 3102 3103 3104 3104 3106 3108 3109 3109 3109 3111 3110 3110 3111 3110 3110 3109 3108 3107 3105 3102 3099 3096 3094 3091 3089 3086
3081 3082 3083 3083 3086 3089 3091 3093 3095 3097 3098 3099 3100 3100 3101 3102 3101 3100 3102 3103 3104 3105 3106 3107 3108 3107 3106 3107 3107 3105 3103 3102 3101 3099 3097 3094 3091 3088 3084 3081 3080 3078 3074
3086 3086 3087 3087 3088 3088 3089 3092 3095 3096 3099 3098 3099 3099 3100 3101 3100 3101 3101 3102 3103 3103 3104 3104 3104 3104 3103 3102 3100 3097 3095 3093 3091 3089 3086 3082 3078 3076 3073 3070 3068 3066 3062
3089 3089 3089 3090 3090 3091 3091 3093 3095 3096 3099 3099 3100 3100 3101 3100 3100 3100 3101 3100 3101 3101 3100 3100 3100 3098 3096 3093 3091 3088 3086 3083 3081 3077 3074 3071 3068 3064 3062 3058 3055 3054 3051
3091 3092 3092 3092 3094 3095 3095 3097 3098 3099 3099 3100 3099 3099 3099 3099 3098 3098 3098 3097 3097 3096 3095 3094 3092 3090 3087 3084 3082 3078 3075 3073 3070 3066 3063 3059 3056 3054 3050 3048 3045 3044 3041
3095 3095 3096 3097 3097 3098 3099 3099 3099 3099 3100 3099 3099 3098 3098 3097 3096 3095 3094 3093 3092 3090 3089 3087 3084 3082 3078 3076 3072 3069 3065 3063 3059 3054 3052 3048 3044 3042 3040 3038 3035 3034 3030
3097 3097 3097 3098 3099 3099 3099 3099 3099 3099 3099 3098 3097 3097 3096 3094 3093 3091 3089 3087 3086 3084 3081 3078 3076 3073 3069 3067 3063 3059 3055 3051 3048 3045 3042 3039 3036 3033 3030 3028 3026 3025 3023
3098 3098 3098 3099 3099 3099 3098 3098 3098 3097 3096 3095 3094 3093 3092 3090 3088 3086 3083 3081 3079 3077 3074 3071 3069 3065 3062 3058 3055 3051 3047 3044 3040 3036 3033 3029 3027 3024 3020 3018 3016 3015 3014
3097 3098 3098 3098 3097 3097 3096 3096 3095 3094 3093 3092 3091 3089 3087 3085 3082 3080 3078 3076 3074 3070 3067 3064 3061 3057 3053 3050 3045 3042 3038 3035 3032 3029 3025 3021 3019 3016 3012 3008 3007 3006 3004
3095 3096 3096 3096 3096 3095 3095 3094 3093 3091 3090 3088 3086 3084 3081 3078 3075 3073 3071 3068 3065 3062 3059 3056 3053 3049 3046 3041 3038 3034 3030 3027 3023 3019 3014 3011 3009 3007 3004 3000 2997 2997 2996
3092 3093 3093 3093 3093 3093 3092 3091 3090 3088 3087 3084 3082 3079 3076 3074 3072 3069 3067 3064 3061 3057 3053 3050 3047 3044 3039 3034 3031 3027 3022 3019 3016 3012 3008 3005 3002 3000 2997 2993 2990 2989 2987
3091 3090 3090 3090 3090 3089 3089 3088 3086 3085 3083 3081 3078 3076 3073 3071 3069 3066 3063 3059 3055 3051 3048 3043 3039 3035 3032 3028 3024 3019 3016 3011 3008 3004 3000 2997 2994 2992 2989 2986 2983 2981 2978
3088 3088 3088 3087 3087 3087 3086 3085 3084 3082 3080 3078 3075 3072 3070 3067 3064 3061 3058 3054 3050 3046 3042 3038 3035 3030 3025 3021 3017 3013 3009 3006 3001 2998 2995 2991 2988 2985 2982 2979 2976 2973 2970
3084 3084 3085 3084 3084 3084 3083 3082 3081 3079 3076 3074 3071 3068 3065 3063 3060 3057 3054 3050 3046 3042 3039 3035 3031 3025 3020 3016 3011 3007 3004 3000 2997 2994 2991 2987 2984 2981 2977 2973 2970 2967 2964
3079 3080 3080 3081 3081 3080 3079 3079 3077 3075 3073 3070 3067 3065 3063 3060 3058 3054 3050 3046 3043 3039 3035 3031 3026 3022 3017 3012 3008 3004 3001 2997 2995 2991 2987 2984 2980 2976 2972 2969 2965 2961 2958
3075 3075 3075 3076 3076 3076 3075 3075 3073 3071 3069 3067 3064 3062 3059 3056 3053 3050 3047 3043 3039 3035 3031 3027 3023 3018 3014 3010 3007 3003 2999 2996 2993 2989 2985 2981 2977 2973 2968 2964 2959 2955 2951